M I D A S
Marine Information and Data Acquisition System
Tripno 1356 of the Zeeleeuw from 2007-09-25 06:39:14 to 2007-09-25 15:25:09
Back to CruiseResearch ActivitiesStationsMapUnderway DataData graphs

EquipmentUnitsComments
TimeDGPSUTC
LatitudeDGPSDM.mWGS84
LongitudeDGPSDM.mWGS84
SpeedMeteo Stationm/sRelative wind speed
DirectionMeteo StationdegRelative wind direction
TemperatureMeteo Stationdeg CelciusAir temperature
PressureMeteo StationPaAtmospheric pressure
HumidityMeteo Station%Relative humidity
Missing or incorrect values are displayed as -999
Metereological data collected by the RV Zeeleeuw from 2007-09-25 06:26:18 to 2007-09-25 15:38:00
                                                                                    Next 1000 lines
Time Latitude Longitude Speed Direction Temperature Pressure Humidity
2007-09-25 06:26:28 51°13.603 2°56.098 3 8 -999 -999 -999
2007-09-25 06:26:33 51°13.603 2°56.097 4.1 27 -999 -999 -999
2007-09-25 06:26:37 51°13.604 2°56.095 3.9 31 -999 -999 -999
2007-09-25 06:26:42 51°13.605 2°56.093 3.8 30 9.7 -999 76
2007-09-25 06:26:47 51°13.606 2°56.09 3.2 33 9.7 -999 76
2007-09-25 06:26:52 51°13.607 2°56.086 2.9 38 9.7 -999 97
2007-09-25 06:26:57 51°13.609 2°56.082 2.7 32 9.7 -999 97
2007-09-25 06:27:03 51°13.611 2°56.076 3.1 34 9.7 101230 97
2007-09-25 06:27:09 51°13.613 2°56.07 2.2 37 9.7 101230 97
2007-09-25 06:27:14 51°13.614 2°56.066 3.5 6 9.7 101230 97
2007-09-25 06:27:19 51°13.616 2°56.06 3.7 7 9.7 101230 97
2007-09-25 06:27:24 51°13.618 2°56.054 3.5 14 9.7 101230 97
2007-09-25 06:27:29 51°13.62 2°56.048 4.4 28 9.7 101230 97
2007-09-25 06:27:34 51°13.62 2°56.042 4.2 36 9.7 101230 97
2007-09-25 06:27:39 51°13.622 2°56.035 4.6 33 9.7 101230 97
2007-09-25 06:27:44 51°13.624 2°56.028 4.8 39 9.8 101230 97
2007-09-25 06:27:49 51°13.626 2°56.02 3.9 34 9.8 101230 97
2007-09-25 06:27:54 51°13.63 2°56.012 3.3 24 9.7 101230 97
2007-09-25 06:27:59 51°13.633 2°56.003 3.2 32 9.7 101230 97
2007-09-25 06:28:04 51°13.636 2°55.994 3 32 9.7 101230 97
2007-09-25 06:28:09 51°13.64 2°55.985 3 37 9.7 101230 97
2007-09-25 06:28:14 51°13.644 2°55.976 4.3 39 9.7 101230 97
2007-09-25 06:28:19 51°13.647 2°55.966 4 37 9.7 101230 97
2007-09-25 06:28:24 51°13.652 2°55.956 3 26 9.7 101230 97
2007-09-25 06:28:29 51°13.656 2°55.946 2.8 36 9.7 101230 97
2007-09-25 06:28:34 51°13.661 2°55.936 4.3 37 9.7 101230 97
2007-09-25 06:28:39 51°13.665 2°55.926 3.4 40 9.7 101230 97
2007-09-25 06:28:44 51°13.668 2°55.916 3.8 34 9.7 101230 97
2007-09-25 06:28:49 51°13.672 2°55.907 2.9 29 9.7 101230 97
2007-09-25 06:28:54 51°13.676 2°55.897 2.7 42 9.7 101230 97
2007-09-25 06:28:59 51°13.68 2°55.888 2.5 41 9.7 101230 97
2007-09-25 06:29:04 51°13.683 2°55.879 2.7 35 9.7 101230 97
2007-09-25 06:29:09 51°13.687 2°55.87 4.3 33 9.7 101230 97
2007-09-25 06:29:14 51°13.69 2°55.862 3.4 30 9.7 101230 97
2007-09-25 06:29:19 51°13.693 2°55.853 3.6 25 9.7 101230 97
2007-09-25 06:29:24 51°13.696 2°55.844 3.1 22 9.7 101230 97
2007-09-25 06:29:29 51°13.699 2°55.835 3.6 25 9.7 101230 97
2007-09-25 06:29:34 51°13.701 2°55.827 2.8 31 9.7 101230 97
2007-09-25 06:29:39 51°13.703 2°55.818 2.8 40 9.7 101230 97
2007-09-25 06:29:44 51°13.705 2°55.809 3.2 20 9.8 101230 97
2007-09-25 06:29:49 51°13.707 2°55.801 3.2 27 9.8 101230 97
2007-09-25 06:29:54 51°13.708 2°55.793 3.3 33 9.8 101230 97
2007-09-25 06:29:59 51°13.71 2°55.785 2.8 33 9.8 101230 97
2007-09-25 06:30:04 51°13.71 2°55.777 3.1 35 9.8 101230 97
2007-09-25 06:30:09 51°13.711 2°55.769 3.1 43 9.8 101230 97
2007-09-25 06:30:14 51°13.711 2°55.761 3.2 41 9.8 101230 97
2007-09-25 06:30:19 51°13.712 2°55.753 3.5 41 9.8 101230 97
2007-09-25 06:30:24 51°13.712 2°55.746 3.6 36 9.8 101230 97
2007-09-25 06:30:29 51°13.713 2°55.739 4.4 55 9.8 101230 97
2007-09-25 06:30:34 51°13.713 2°55.732 4.1 44 9.8 101230 97
2007-09-25 06:30:39 51°13.713 2°55.725 4.3 37 9.8 101230 97
2007-09-25 06:30:44 51°13.713 2°55.72 4.9 39 9.8 101230 97
2007-09-25 06:30:49 51°13.713 2°55.715 3.2 38 9.8 101230 97
2007-09-25 06:30:53 51°13.713 2°55.712 3.6 32 9.8 101230 97
2007-09-25 06:30:58 51°13.713 2°55.708 3.6 40 9.8 101230 97
2007-09-25 06:31:03 51°13.713 2°55.706 3.5 24 9.8 101230 97
2007-09-25 06:31:08 51°13.713 2°55.704 4.5 37 9.8 101230 97
2007-09-25 06:31:13 51°13.713 2°55.703 4.9 39 9.8 101230 97
2007-09-25 06:31:17 51°13.713 2°55.702 5.4 39 9.8 101230 97
2007-09-25 06:31:22 51°13.714 2°55.702 4.7 39 9.8 101230 97
2007-09-25 06:31:27 51°13.715 2°55.701 3.6 54 9.8 101230 97
2007-09-25 06:31:32 51°13.715 2°55.702 3 20 9.8 101230 97
2007-09-25 06:31:37 51°13.716 2°55.702 2.3 57 9.8 101230 97
2007-09-25 06:31:41 51°13.717 2°55.702 2.4 35 9.8 101220 97
2007-09-25 06:31:46 51°13.718 2°55.703 3 52 9.8 101220 97
2007-09-25 06:31:51 51°13.719 2°55.704 3.3 23 9.8 101220 97
2007-09-25 06:31:56 51°13.721 2°55.704 3.5 50 9.8 101220 97
2007-09-25 06:32:00 51°13.722 2°55.705 3.3 20 9.8 101230 97
2007-09-25 06:32:05 51°13.725 2°55.706 2.8 55 9.8 101230 97
2007-09-25 06:32:10 51°13.728 2°55.706 2.4 26 9.8 101230 97
2007-09-25 06:32:16 51°13.733 2°55.706 1.6 56 9.8 101230 97
2007-09-25 06:32:20 51°13.736 2°55.705 1.3 264 9.8 101230 97
2007-09-25 06:32:25 51°13.742 2°55.703 0.8 303 9.8 101230 97
2007-09-25 06:32:30 51°13.748 2°55.7 1.5 21 9.8 101230 97
2007-09-25 06:32:35 51°13.754 2°55.696 1.6 303 9.8 101230 97
2007-09-25 06:32:41 51°13.762 2°55.691 1.8 262 9.8 101230 97
2007-09-25 06:32:45 51°13.767 2°55.687 1.6 305 9.8 101230 97
2007-09-25 06:32:50 51°13.775 2°55.682 1.9 25 9.8 101230 97
2007-09-25 06:32:55 51°13.782 2°55.676 3.1 303 9.8 101230 97
2007-09-25 06:33:00 51°13.79 2°55.67 2.5 21 9.9 101230 97
2007-09-25 06:33:05 51°13.797 2°55.665 1.5 305 9.9 101230 97
2007-09-25 06:33:10 51°13.806 2°55.658 2.9 247 9.9 101230 97
2007-09-25 06:33:15 51°13.814 2°55.652 1.8 307 9.9 101230 97
2007-09-25 06:33:20 51°13.822 2°55.646 3 249 9.9 101230 97
2007-09-25 06:33:25 51°13.831 2°55.639 2.2 310 9.9 101230 97
2007-09-25 06:33:30 51°13.839 2°55.632 3 257 9.9 101230 97
2007-09-25 06:33:35 51°13.848 2°55.626 1.5 310 9.9 101230 97
2007-09-25 06:33:40 51°13.857 2°55.619 1.2 25 9.9 101230 97
2007-09-25 06:33:45 51°13.866 2°55.612 1.2 50 9.9 101230 97
2007-09-25 06:33:50 51°13.876 2°55.605 0.9 26 9.9 101230 97
2007-09-25 06:33:55 51°13.885 2°55.598 1.2 305 9.9 101230 97
2007-09-25 06:34:00 51°13.894 2°55.59 0.9 20 9.9 101230 97
2007-09-25 06:34:05 51°13.904 2°55.583 1.3 303 9.9 101230 97
2007-09-25 06:34:10 51°13.913 2°55.576 1.4 328 9.9 101230 97
2007-09-25 06:34:16 51°13.924 2°55.567 0.7 342 9.9 101230 97
2007-09-25 06:34:20 51°13.932 2°55.561 2.2 24 9.9 101230 97
2007-09-25 06:34:25 51°13.941 2°55.554 3.1 308 9.9 101230 97
2007-09-25 06:34:30 51°13.951 2°55.546 2.4 254 9.9 101230 97
2007-09-25 06:34:35 51°13.961 2°55.539 1.5 308 9.9 101230 97
2007-09-25 06:34:41 51°13.972 2°55.531 2.1 28 10 101230 97
2007-09-25 06:34:45 51°13.98 2°55.525 3.7 304 10 101230 97
2007-09-25 06:34:50 51°13.99 2°55.518 3.1 26 10 101220 97
2007-09-25 06:34:56 51°14.001 2°55.51 3.1 303 10 101220 97
2007-09-25 06:35:00 51°14.009 2°55.504 3 246 10 101220 97
2007-09-25 06:35:05 51°14.019 2°55.497 1.9 304 10 101220 97
2007-09-25 06:35:10 51°14.029 2°55.49 1.6 25 10 101230 97
2007-09-25 06:35:15 51°14.038 2°55.483 2.2 304 10 101230 97
2007-09-25 06:35:20 51°14.048 2°55.476 1.3 26 10 101230 97
2007-09-25 06:35:25 51°14.058 2°55.468 2 303 10 101230 97
2007-09-25 06:35:30 51°14.067 2°55.461 1.8 255 10 101230 97
2007-09-25 06:35:35 51°14.077 2°55.454 2.2 309 10 101230 97
2007-09-25 06:35:40 51°14.087 2°55.446 2.6 27 10 101230 97
2007-09-25 06:35:45 51°14.096 2°55.439 2.7 303 10 101230 97
2007-09-25 06:35:50 51°14.106 2°55.431 3.2 21 10 101230 97
2007-09-25 06:35:56 51°14.117 2°55.422 2.2 304 10 101230 97
2007-09-25 06:36:01 51°14.126 2°55.414 2.5 26 10 101220 97
2007-09-25 06:36:06 51°14.136 2°55.407 4.3 302 10 101220 97
2007-09-25 06:36:11 51°14.145 2°55.399 3.5 249 10 101230 97
2007-09-25 06:36:17 51°14.156 2°55.389 5 303 10 101230 97
2007-09-25 06:36:22 51°14.165 2°55.381 6.5 260 10 101230 97
2007-09-25 06:36:27 51°14.174 2°55.373 4.1 304 10 101230 97
2007-09-25 06:36:33 51°14.184 2°55.362 5.1 251 10.1 101220 97
2007-09-25 06:36:38 51°14.192 2°55.353 3.9 307 10.1 101220 97
2007-09-25 06:36:43 51°14.2 2°55.344 4 19 10 101230 97
2007-09-25 06:36:49 51°14.21 2°55.333 3 306 10 101230 97
2007-09-25 06:36:53 51°14.215 2°55.325 2.1 249 10 101230 97
2007-09-25 06:36:58 51°14.223 2°55.315 3 305 10 101230 97
2007-09-25 06:37:03 51°14.229 2°55.305 2.6 252 10 101230 97
2007-09-25 06:37:08 51°14.236 2°55.295 2.7 309 10 101230 97
2007-09-25 06:37:13 51°14.244 2°55.284 2.9 28 10.1 101230 97
2007-09-25 06:37:17 51°14.249 2°55.276 2.6 303 10.1 101230 97
2007-09-25 06:37:22 51°14.257 2°55.265 3.1 256 10.1 101220 97
2007-09-25 06:37:27 51°14.264 2°55.253 4.7 303 10.1 101220 97
2007-09-25 06:37:31 51°14.27 2°55.244 6.3 250 10.1 101230 97
2007-09-25 06:37:36 51°14.277 2°55.231 5.9 303 10.1 101230 97
2007-09-25 06:37:41 51°14.285 2°55.218 7.5 252 10.1 101220 97
2007-09-25 06:37:46 51°14.292 2°55.205 4.1 305 10.1 101220 97
2007-09-25 06:37:50 51°14.298 2°55.195 4.8 259 10.1 101220 97
2007-09-25 06:37:55 51°14.306 2°55.182 5 304 10.1 101220 97
2007-09-25 06:38:00 51°14.313 2°55.168 5.5 25 10.1 101220 97
2007-09-25 06:38:05 51°14.321 2°55.155 8.1 302 10.1 101220 97
2007-09-25 06:38:10 51°14.328 2°55.141 8.5 22 10.1 101220 96
2007-09-25 06:38:15 51°14.336 2°55.127 6.2 306 10.1 101220 96
2007-09-25 06:38:20 51°14.343 2°55.113 6.3 261 10.1 101220 96
2007-09-25 06:38:26 51°14.352 2°55.095 4.7 309 10.1 101220 96
2007-09-25 06:38:30 51°14.359 2°55.083 4.5 22 10.1 101210 96
2007-09-25 06:38:36 51°14.368 2°55.065 5.9 305 10.1 101210 96
2007-09-25 06:38:40 51°14.375 2°55.052 6.4 25 10.1 101210 96
2007-09-25 06:38:45 51°14.383 2°55.035 7.8 308 10.1 101210 96
2007-09-25 06:38:50 51°14.392 2°55.018 10 24 10.1 101220 96
2007-09-25 06:38:55 51°14.4 2°55 8.8 301 10.1 101220 96
2007-09-25 06:39:00 51°14.41 2°54.982 9.4 248 10.1 101210 96
2007-09-25 06:39:05 51°14.419 2°54.965 9.6 308 10.1 101210 96
2007-09-25 06:39:10 51°14.43 2°54.948 7.2 19 10.1 101210 96
2007-09-25 06:39:16 51°14.442 2°54.926 8.5 306 10.1 101210 96
2007-09-25 06:39:20 51°14.451 2°54.912 6.4 22 10.2 101230 96
2007-09-25 06:39:25 51°14.462 2°54.893 7.9 304 10.2 101230 96
2007-09-25 06:39:30 51°14.474 2°54.876 5.5 252 10.1 101220 96
2007-09-25 06:39:35 51°14.487 2°54.86 6.4 304 10.1 101220 96
2007-09-25 06:39:41 51°14.504 2°54.843 5.5 252 10.2 101220 96
2007-09-25 06:39:45 51°14.515 2°54.833 6.2 305 10.2 101220 96
2007-09-25 06:39:51 51°14.533 2°54.819 6.8 259 10.2 101210 96
2007-09-25 06:39:56 51°14.547 2°54.807 5.4 303 10.2 101210 96
2007-09-25 06:40:01 51°14.563 2°54.798 6.7 254 10.2 101220 96
2007-09-25 06:40:06 51°14.578 2°54.789 3.2 308 10.2 101220 96
2007-09-25 06:40:11 51°14.593 2°54.78 4.9 252 10.2 101220 96
2007-09-25 06:40:16 51°14.609 2°54.771 5.5 302 10.2 101220 96
2007-09-25 06:40:21 51°14.625 2°54.762 4.3 254 10.2 101220 96
2007-09-25 06:40:26 51°14.64 2°54.754 4.5 305 10.2 101220 96
2007-09-25 06:40:31 51°14.656 2°54.745 6.9 258 10.2 101220 96
2007-09-25 06:40:36 51°14.671 2°54.735 7.7 302 10.2 101220 96
2007-09-25 06:40:41 51°14.687 2°54.726 5.5 250 10.2 101230 96
2007-09-25 06:40:46 51°14.702 2°54.716 7.9 307 10.2 101230 96
2007-09-25 06:40:51 51°14.718 2°54.706 5.5 260 10.3 101220 96
2007-09-25 06:40:56 51°14.733 2°54.696 5.6 305 10.3 101220 96
2007-09-25 06:41:01 51°14.748 2°54.685 5.7 254 10.3 101220 97
2007-09-25 06:41:06 51°14.764 2°54.675 4.9 305 10.3 101220 97
2007-09-25 06:41:10 51°14.776 2°54.667 8 257 10.3 101220 97
2007-09-25 06:41:16 51°14.794 2°54.654 5.7 309 10.3 101220 97
2007-09-25 06:41:21 51°14.81 2°54.645 5.9 251 10.3 101230 97
2007-09-25 06:41:26 51°14.825 2°54.635 9 305 10.3 101230 97
2007-09-25 06:41:30 51°14.837 2°54.628 5.9 256 10.4 101220 97
2007-09-25 06:41:36 51°14.856 2°54.617 4.2 304 10.4 101220 97
2007-09-25 06:41:41 51°14.871 2°54.608 5.9 258 10.4 101220 97
2007-09-25 06:41:46 51°14.887 2°54.599 5.8 304 10.4 101220 97
2007-09-25 06:41:51 51°14.903 2°54.59 5.3 256 10.4 101210 97
2007-09-25 06:41:56 51°14.918 2°54.581 8.7 305 10.4 101210 97
2007-09-25 06:42:01 51°14.933 2°54.572 5.6 260 10.4 101220 97
2007-09-25 06:42:06 51°14.948 2°54.563 6.3 304 10.4 101220 97
2007-09-25 06:42:10 51°14.961 2°54.555 4.1 260 10.4 101220 97
2007-09-25 06:42:16 51°14.979 2°54.543 7.4 307 10.4 101220 97
2007-09-25 06:42:21 51°14.993 2°54.533 5.9 254 10.5 101220 97
2007-09-25 06:42:26 51°15.008 2°54.523 6 305 10.5 101220 97
2007-09-25 06:42:31 51°15.022 2°54.512 6.7 258 10.5 101220 97
2007-09-25 06:42:36 51°15.037 2°54.502 10 308 10.5 101220 97
2007-09-25 06:42:41 51°15.052 2°54.491 8.8 258 10.5 101220 97
2007-09-25 06:42:46 51°15.066 2°54.481 5.7 308 10.5 101220 97
2007-09-25 06:42:51 51°15.081 2°54.471 6 256 10.6 101220 97
2007-09-25 06:42:56 51°15.096 2°54.46 6.1 310 10.6 101220 97
2007-09-25 06:43:01 51°15.111 2°54.449 9.1 256 10.6 101230 97
2007-09-25 06:43:06 51°15.125 2°54.439 5.6 308 10.6 101230 97
2007-09-25 06:43:11 51°15.139 2°54.428 8.9 256 10.7 101210 97
2007-09-25 06:43:16 51°15.154 2°54.417 8.3 309 10.7 101210 97
2007-09-25 06:43:21 51°15.169 2°54.406 10.5 254 10.7 101220 97
2007-09-25 06:43:26 51°15.184 2°54.395 9.6 310 10.7 101220 97
2007-09-25 06:43:30 51°15.196 2°54.387 7.1 258 10.7 101210 97
2007-09-25 06:43:36 51°15.213 2°54.373 10.9 310 10.7 101210 97
2007-09-25 06:43:41 51°15.228 2°54.362 10.7 258 10.7 101230 97
2007-09-25 06:43:46 51°15.242 2°54.35 8.3 306 10.7 101230 97
2007-09-25 06:43:51 51°15.257 2°54.339 9 253 10.8 101210 97
2007-09-25 06:43:56 51°15.271 2°54.327 8.2 304 10.8 101210 97
2007-09-25 06:44:01 51°15.286 2°54.315 10.1 258 10.7 101230 97
2007-09-25 06:44:06 51°15.3 2°54.303 8.4 305 10.7 101230 97
2007-09-25 06:44:10 51°15.312 2°54.294 7.7 252 10.8 101210 97
2007-09-25 06:44:15 51°15.327 2°54.282 7.8 303 10.8 101210 97
2007-09-25 06:44:21 51°15.345 2°54.269 10.5 259 10.8 101210 97
2007-09-25 06:44:26 51°15.36 2°54.259 7.1 303 10.8 101210 97
2007-09-25 06:44:31 51°15.374 2°54.247 7.4 255 10.8 101220 97
2007-09-25 06:44:36 51°15.389 2°54.236 8 304 10.8 101220 97
2007-09-25 06:44:41 51°15.404 2°54.225 8.3 258 10.8 101210 97
2007-09-25 06:44:46 51°15.419 2°54.215 10.2 303 10.8 101210 97
2007-09-25 06:44:51 51°15.434 2°54.204 9 252 10.9 101210 97
2007-09-25 06:44:56 51°15.449 2°54.193 7 310 10.9 101210 97
2007-09-25 06:45:01 51°15.464 2°54.182 9.4 257 10.9 101230 97
2007-09-25 06:45:06 51°15.479 2°54.171 11 302 10.9 101230 97
2007-09-25 06:45:11 51°15.494 2°54.161 9.6 258 10.9 101210 97
2007-09-25 06:45:16 51°15.509 2°54.15 10.1 305 10.9 101210 97
2007-09-25 06:45:21 51°15.524 2°54.139 6.9 257 10.9 101210 97
2007-09-25 06:45:26 51°15.539 2°54.128 7.5 304 10.9 101210 97
2007-09-25 06:45:31 51°15.554 2°54.117 8.9 255 11 101210 97
2007-09-25 06:45:36 51°15.569 2°54.105 5.9 305 11 101210 97
2007-09-25 06:45:41 51°15.584 2°54.094 7.4 256 11 101220 97
2007-09-25 06:45:46 51°15.599 2°54.084 7.7 305 11 101220 97
2007-09-25 06:45:51 51°15.614 2°54.073 10.6 257 11 101220 97
2007-09-25 06:45:56 51°15.629 2°54.062 8.8 310 11 101220 97
2007-09-25 06:46:01 51°15.644 2°54.051 6.8 258 11 101210 97
2007-09-25 06:46:06 51°15.659 2°54.04 6.2 308 11 101210 97
2007-09-25 06:46:10 51°15.671 2°54.032 9.1 257 11 101200 97
2007-09-25 06:46:16 51°15.689 2°54.018 8.1 305 11 101200 97
2007-09-25 06:46:21 51°15.704 2°54.008 9 256 11 101210 97
2007-09-25 06:46:26 51°15.719 2°53.997 7.1 305 11 101210 97
2007-09-25 06:46:31 51°15.734 2°53.987 9.2 259 11.1 101210 97
2007-09-25 06:46:36 51°15.749 2°53.976 8.7 305 11.1 101210 97
2007-09-25 06:46:41 51°15.765 2°53.965 9.5 256 11.1 101210 97
2007-09-25 06:46:46 51°15.78 2°53.955 8.5 306 11.1 101210 97
2007-09-25 06:46:51 51°15.795 2°53.943 9 257 11.1 101210 97
2007-09-25 06:46:55 51°15.807 2°53.934 8.3 306 11.1 101210 97
2007-09-25 06:47:01 51°15.825 2°53.921 10.3 254 11.2 101220 97
2007-09-25 06:47:06 51°15.84 2°53.911 10.9 306 11.2 101220 97
2007-09-25 06:47:11 51°15.855 2°53.9 9.3 260 11.2 101210 97
2007-09-25 06:47:16 51°15.87 2°53.889 9.8 310 11.2 101210 97
2007-09-25 06:47:21 51°15.885 2°53.878 10.9 258 11.2 101210 97
2007-09-25 06:47:26 51°15.899 2°53.867 8.9 304 11.2 101210 97
2007-09-25 06:47:31 51°15.915 2°53.857 8.2 264 11.2 101220 97
2007-09-25 06:47:36 51°15.929 2°53.849 4.5 309 11.2 101220 97
2007-09-25 06:47:41 51°15.944 2°53.847 5.8 270 11.2 101220 97
2007-09-25 06:47:46 51°15.958 2°53.848 3.3 50 11.2 101220 97
2007-09-25 06:47:51 51°15.972 2°53.853 3.3 21 11.2 101210 97
2007-09-25 06:47:56 51°15.983 2°53.862 3.3 50 11.2 101210 97
2007-09-25 06:48:01 51°15.995 2°53.871 1.5 19 11.2 101210 97
2007-09-25 06:48:06 51°16.004 2°53.884 4.6 39 11.2 101210 97
2007-09-25 06:48:11 51°16.012 2°53.898 4.4 39 11.2 101220 97
2007-09-25 06:48:16 51°16.018 2°53.914 5 32 11.2 101220 97
2007-09-25 06:48:21 51°16.025 2°53.93 7 35 11.3 101200 97
2007-09-25 06:48:26 51°16.031 2°53.947 5.1 34 11.3 101200 97
2007-09-25 06:48:31 51°16.038 2°53.963 6.4 41 11.3 101200 97
2007-09-25 06:48:36 51°16.044 2°53.98 5.2 40 11.3 101200 97
2007-09-25 06:48:41 51°16.052 2°53.994 3.9 25 11.3 101190 97
2007-09-25 06:48:46 51°16.061 2°54.008 4.5 53 11.3 101190 97
2007-09-25 06:48:50 51°16.068 2°54.018 3.8 25 11.3 101200 97
2007-09-25 06:48:55 51°16.078 2°54.029 3.4 58 11.3 101200 97
2007-09-25 06:49:01 51°16.091 2°54.042 2.8 27 11.3 101210 97
2007-09-25 06:49:06 51°16.101 2°54.054 4 51 11.3 101210 97
2007-09-25 06:49:11 51°16.111 2°54.066 3.8 41 11.3 101200 97
2007-09-25 06:49:16 51°16.121 2°54.079 4.3 38 11.3 101200 97
2007-09-25 06:49:21 51°16.13 2°54.092 4.3 28 11.3 101210 96
2007-09-25 06:49:26 51°16.139 2°54.106 4.7 36 11.3 101210 96
2007-09-25 06:49:31 51°16.147 2°54.122 5.6 34 11.4 101210 97
2007-09-25 06:49:36 51°16.155 2°54.137 4.9 35 11.4 101210 97
2007-09-25 06:49:41 51°16.163 2°54.153 4.4 31 11.4 101210 97
2007-09-25 06:49:46 51°16.171 2°54.169 4.6 37 11.4 101210 97
2007-09-25 06:49:51 51°16.179 2°54.184 4.2 32 11.4 101200 97
2007-09-25 06:49:56 51°16.188 2°54.198 5 43 11.4 101200 97
2007-09-25 06:50:01 51°16.197 2°54.211 4.8 45 11.3 101210 96
2007-09-25 06:50:06 51°16.207 2°54.222 4.3 55 11.3 101210 96
2007-09-25 06:50:11 51°16.215 2°54.231 3.3 23 11.4 101200 96
2007-09-25 06:50:16 51°16.224 2°54.238 3.1 58 11.4 101200 96
2007-09-25 06:50:21 51°16.232 2°54.245 3.6 26 11.4 101200 96
2007-09-25 06:50:26 51°16.24 2°54.251 3.4 53 11.4 101200 96
2007-09-25 06:50:31 51°16.247 2°54.256 4.7 26 11.4 101220 96
2007-09-25 06:50:36 51°16.253 2°54.262 4.4 56 11.4 101220 96
2007-09-25 06:50:41 51°16.258 2°54.268 5.8 25 11.5 101210 96
2007-09-25 06:50:46 51°16.263 2°54.274 6.4 56 11.5 101210 96
2007-09-25 06:50:50 51°16.266 2°54.278 7 21 11.5 101220 97
2007-09-25 06:50:55 51°16.27 2°54.283 6.3 57 11.5 101220 97
2007-09-25 06:51:01 51°16.274 2°54.287 7.6 26 11.5 101210 97
2007-09-25 06:51:06 51°16.276 2°54.29 5.8 56 11.5 101210 97
2007-09-25 06:51:11 51°16.278 2°54.292 6.1 22 11.5 101210 96
2007-09-25 06:51:16 51°16.28 2°54.292 4.8 54 11.5 101210 96
2007-09-25 06:51:21 51°16.281 2°54.292 6 24 11.5 101210 96
2007-09-25 06:51:26 51°16.282 2°54.291 5.1 55 11.5 101210 96
2007-09-25 06:51:31 51°16.282 2°54.291 7.1 27 11.5 101210 96
2007-09-25 06:51:36 51°16.283 2°54.29 8.3 56 11.5 101210 96
2007-09-25 06:51:41 51°16.284 2°54.289 8.9 25 11.6 101200 96
2007-09-25 06:51:46 51°16.285 2°54.288 8.5 55 11.6 101200 96
2007-09-25 06:51:51 51°16.285 2°54.286 8.9 19 11.7 101210 97
2007-09-25 06:51:56 51°16.286 2°54.285 6.8 56 11.7 101210 97
2007-09-25 06:52:01 51°16.287 2°54.284 8.5 25 11.6 101210 96
2007-09-25 06:52:06 51°16.287 2°54.283 9.2 58 11.6 101210 96
2007-09-25 06:52:11 51°16.288 2°54.282 10.7 25 11.6 101210 96
2007-09-25 06:52:16 51°16.289 2°54.281 8.4 56 11.6 101210 96
2007-09-25 06:52:21 51°16.289 2°54.279 9.4 26 11.6 101210 96
2007-09-25 06:52:26 51°16.29 2°54.278 8.5 52 11.6 101210 96
2007-09-25 06:52:31 51°16.291 2°54.276 10.9 24 11.7 101210 96
2007-09-25 06:52:36 51°16.291 2°54.275 10.3 52 11.7 101210 96
2007-09-25 06:52:41 51°16.292 2°54.273 10.5 25 11.6 101210 95
2007-09-25 06:52:46 51°16.292 2°54.272 8.2 57 11.6 101210 95
2007-09-25 06:52:50 51°16.293 2°54.27 7.8 20 11.6 101220 95
2007-09-25 06:52:56 51°16.293 2°54.268 7.8 58 11.6 101220 95
2007-09-25 06:53:01 51°16.294 2°54.267 10.3 24 11.6 101210 95
2007-09-25 06:53:06 51°16.294 2°54.265 9.9 58 11.6 101210 95
2007-09-25 06:53:11 51°16.295 2°54.263 7.4 28 11.6 101210 95
2007-09-25 06:53:16 51°16.295 2°54.261 9.3 60 11.6 101210 95
2007-09-25 06:53:21 51°16.295 2°54.259 9.4 23 11.6 101210 95
2007-09-25 06:53:26 51°16.296 2°54.257 8.1 59 11.6 101210 95
2007-09-25 06:53:30 51°16.296 2°54.256 9.4 21 11.7 101210 95
2007-09-25 06:53:35 51°16.296 2°54.254 11.4 54 11.7 101210 95
2007-09-25 06:53:40 51°16.296 2°54.253 11.8 18 11.7 101210 96
2007-09-25 06:53:46 51°16.297 2°54.25 11.9 55 11.7 101210 96
2007-09-25 06:53:51 51°16.297 2°54.249 11 14 11.8 101210 96
2007-09-25 06:53:56 51°16.297 2°54.247 11.2 312 11.8 101210 96
2007-09-25 06:54:01 51°16.297 2°54.245 10.5 270 11.7 101220 96
2007-09-25 06:54:06 51°16.297 2°54.244 8.7 306 11.7 101220 96
2007-09-25 06:54:11 51°16.297 2°54.242 10.3 270 11.7 101210 95
2007-09-25 06:54:16 51°16.297 2°54.24 9.5 303 11.7 101210 95
2007-09-25 06:54:21 51°16.297 2°54.239 7.8 268 11.6 101220 95
2007-09-25 06:54:26 51°16.297 2°54.237 6 303 11.6 101220 95
2007-09-25 06:54:31 51°16.297 2°54.236 8.1 266 11.6 101220 94
2007-09-25 06:54:36 51°16.297 2°54.234 6.9 308 11.6 101220 94
2007-09-25 06:54:41 51°16.297 2°54.232 8.2 270 11.6 101210 95
2007-09-25 06:54:46 51°16.297 2°54.231 10.1 305 11.6 101210 95
2007-09-25 06:54:50 51°16.297 2°54.23 8.9 266 11.7 101210 95
2007-09-25 06:54:56 51°16.296 2°54.227 10.5 307 11.7 101210 95
2007-09-25 06:55:01 51°16.296 2°54.226 7.5 268 11.7 101210 95
2007-09-25 06:55:06 51°16.295 2°54.224 8 304 11.7 101210 95
2007-09-25 06:55:11 51°16.295 2°54.223 8 270 11.7 101200 95
2007-09-25 06:55:16 51°16.294 2°54.221 9.8 303 11.7 101200 95
2007-09-25 06:55:21 51°16.294 2°54.22 9.8 29 11.7 101220 95
2007-09-25 06:55:26 51°16.294 2°54.219 8.5 302 11.7 101220 95
2007-09-25 06:55:30 51°16.294 2°54.218 8.2 270 11.7 101210 95
2007-09-25 06:55:35 51°16.294 2°54.216 6.4 307 11.7 101210 95
2007-09-25 06:55:41 51°16.293 2°54.214 9.1 266 11.7 101210 95
2007-09-25 06:55:46 51°16.294 2°54.212 7.4 302 11.7 101210 95
2007-09-25 06:55:50 51°16.294 2°54.211 6 264 11.7 101220 95
2007-09-25 06:55:56 51°16.295 2°54.208 6.3 309 11.7 101220 95
2007-09-25 06:56:01 51°16.296 2°54.205 5.8 263 11.7 101220 94
2007-09-25 06:56:06 51°16.298 2°54.201 6.6 307 11.7 101220 94
2007-09-25 06:56:11 51°16.299 2°54.197 7.4 264 11.7 101210 94
2007-09-25 06:56:16 51°16.301 2°54.192 6.9 308 11.7 101210 94
2007-09-25 06:56:21 51°16.304 2°54.187 6.9 262 11.7 101210 94
2007-09-25 06:56:26 51°16.307 2°54.181 7.2 303 11.7 101210 94
2007-09-25 06:56:31 51°16.311 2°54.174 6.8 263 11.7 101210 94
2007-09-25 06:56:36 51°16.315 2°54.166 9.6 302 11.7 101210 94
2007-09-25 06:56:41 51°16.32 2°54.157 9.9 259 11.7 101210 94
2007-09-25 06:56:46 51°16.325 2°54.147 8.4 308 11.7 101210 94
2007-09-25 06:56:51 51°16.331 2°54.136 8 258 11.7 101200 94
2007-09-25 06:56:56 51°16.338 2°54.125 10.8 304 11.7 101200 94
2007-09-25 06:57:01 51°16.346 2°54.112 11.3 257 11.7 101200 94
2007-09-25 06:57:06 51°16.355 2°54.099 8.5 306 11.7 101200 94
2007-09-25 06:57:10 51°16.362 2°54.087 9.6 252 11.7 101220 94
2007-09-25 06:57:16 51°16.375 2°54.069 10.6 305 11.7 101220 94
2007-09-25 06:57:21 51°16.386 2°54.053 10.7 254 11.7 101210 94
2007-09-25 06:57:26 51°16.397 2°54.037 10.6 302 11.7 101210 94
2007-09-25 06:57:30 51°16.407 2°54.023 9 245 11.7 101200 94
2007-09-25 06:57:36 51°16.42 2°54.002 10.3 305 11.7 101200 94
2007-09-25 06:57:41 51°16.432 2°53.983 11.2 248 11.7 101200 94
2007-09-25 06:57:46 51°16.443 2°53.964 8.1 305 11.7 101200 94
2007-09-25 06:57:50 51°16.452 2°53.949 9.9 22 11.7 101200 95
2007-09-25 06:57:56 51°16.466 2°53.926 10.2 304 11.7 101200 95
2007-09-25 06:58:01 51°16.477 2°53.907 8 27 11.7 101200 95
2007-09-25 06:58:06 51°16.489 2°53.887 9.1 305 11.7 101200 95
2007-09-25 06:58:11 51°16.5 2°53.867 12.2 20 11.8 101210 95
2007-09-25 06:58:16 51°16.512 2°53.847 12.3 308 11.8 101210 95
2007-09-25 06:58:21 51°16.523 2°53.826 12.2 22 11.8 101210 95
2007-09-25 06:58:26 51°16.535 2°53.806 11.7 307 11.8 101210 95
2007-09-25 06:58:30 51°16.544 2°53.79 9.6 246 11.8 101210 95
2007-09-25 06:58:36 51°16.557 2°53.766 12 301 11.8 101210 95
2007-09-25 06:58:41 51°16.569 2°53.745 9.2 244 11.8 101200 95
2007-09-25 06:58:46 51°16.58 2°53.725 8.7 302 11.8 101200 95
2007-09-25 06:58:51 51°16.592 2°53.705 9.4 246 11.9 101200 95
2007-09-25 06:58:56 51°16.604 2°53.685 10.6 303 11.9 101200 95
2007-09-25 06:59:01 51°16.615 2°53.665 10.1 24 11.9 101200 95
2007-09-25 06:59:06 51°16.627 2°53.645 9.6 303 11.9 101200 95
2007-09-25 06:59:11 51°16.638 2°53.625 9.7 249 11.9 101190 95
2007-09-25 06:59:16 51°16.65 2°53.606 11.4 304 11.9 101190 95
2007-09-25 06:59:21 51°16.661 2°53.586 9.2 249 11.9 101200 95
2007-09-25 06:59:26 51°16.673 2°53.566 9.8 306 11.9 101200 95
2007-09-25 06:59:30 51°16.682 2°53.55 9.2 249 11.9 101200 95
2007-09-25 06:59:36 51°16.695 2°53.527 9.7 308 11.9 101200 95
2007-09-25 06:59:41 51°16.707 2°53.507 11.6 21 12 101200 95
2007-09-25 06:59:46 51°16.718 2°53.487 11.1 304 12 101200 95
2007-09-25 06:59:50 51°16.727 2°53.471 9 24 12 101210 95
2007-09-25 06:59:56 51°16.74 2°53.447 11.6 306 12 101210 95
2007-09-25 07:00:01 51°16.752 2°53.427 11.1 248 12 101220 95
2007-09-25 07:00:06 51°16.763 2°53.408 8.9 305 12 101220 95
2007-09-25 07:00:11 51°16.774 2°53.388 11.5 247 12.1 101210 95
2007-09-25 07:00:16 51°16.786 2°53.368 12.5 308 12.1 101210 95
2007-09-25 07:00:21 51°16.797 2°53.348 8.8 250 12.1 101200 95
2007-09-25 07:00:26 51°16.809 2°53.329 9.1 309 12.1 101200 95
2007-09-25 07:00:30 51°16.818 2°53.313 11.6 21 12.1 101210 95
2007-09-25 07:00:36 51°16.831 2°53.288 9.3 304 12.1 101210 95
2007-09-25 07:00:41 51°16.842 2°53.269 12.7 25 12.1 101220 95
2007-09-25 07:00:46 51°16.853 2°53.248 9.6 302 12.1 101220 95
2007-09-25 07:00:51 51°16.864 2°53.228 9 245 12.2 101220 95
2007-09-25 07:00:56 51°16.875 2°53.208 12.5 302 12.2 101220 95
2007-09-25 07:01:00 51°16.884 2°53.193 10.3 247 12.2 101220 95
2007-09-25 07:01:06 51°16.897 2°53.169 11.7 302 12.2 101220 95
2007-09-25 07:01:11 51°16.907 2°53.15 11.3 22 12.2 101200 95
2007-09-25 07:01:16 51°16.918 2°53.131 11.4 302 12.2 101200 95
2007-09-25 07:01:21 51°16.929 2°53.112 11.1 245 12.2 101210 95
2007-09-25 07:01:26 51°16.94 2°53.093 12 304 12.2 101210 95
2007-09-25 07:01:31 51°16.951 2°53.074 9.3 246 12.2 101220 95
2007-09-25 07:01:36 51°16.962 2°53.055 11 305 12.2 101220 95
2007-09-25 07:01:41 51°16.972 2°53.036 11 247 12.2 101220 95
2007-09-25 07:01:46 51°16.983 2°53.017 8.5 302 12.2 101220 95
2007-09-25 07:01:51 51°16.995 2°52.998 11 246 12.2 101210 95
2007-09-25 07:01:56 51°17.006 2°52.978 11.7 305 12.2 101210 95
2007-09-25 07:02:01 51°17.017 2°52.958 11.3 245 12.2 101220 95
2007-09-25 07:02:06 51°17.028 2°52.939 11.8 309 12.2 101220 95
2007-09-25 07:02:11 51°17.039 2°52.92 12.7 22 12.2 101210 95
2007-09-25 07:02:15 51°17.048 2°52.904 10.7 304 12.2 101210 95
2007-09-25 07:02:21 51°17.061 2°52.882 8.5 23 12.3 101220 94
2007-09-25 07:02:26 51°17.072 2°52.863 10.8 310 12.3 101220 94
2007-09-25 07:02:30 51°17.081 2°52.847 12.2 245 12.3 101200 95
2007-09-25 07:02:36 51°17.094 2°52.824 8.7 300 12.3 101200 95
2007-09-25 07:02:41 51°17.106 2°52.804 10.5 245 12.3 101190 94
2007-09-25 07:02:46 51°17.117 2°52.785 12.2 302 12.3 101190 94
2007-09-25 07:02:51 51°17.129 2°52.765 11 247 12.4 101210 95
2007-09-25 07:02:56 51°17.14 2°52.746 11.7 308 12.4 101210 95
2007-09-25 07:03:00 51°17.149 2°52.731 11.6 23 12.4 101210 95
2007-09-25 07:03:06 51°17.163 2°52.708 12.1 309 12.4 101210 95
2007-09-25 07:03:11 51°17.174 2°52.689 9 24 12.4 101210 95
2007-09-25 07:03:16 51°17.186 2°52.669 12.3 307 12.4 101210 95
2007-09-25 07:03:21 51°17.197 2°52.65 11.3 246 12.4 101220 95
2007-09-25 07:03:26 51°17.208 2°52.631 11.6 308 12.4 101220 95
2007-09-25 07:03:31 51°17.22 2°52.613 9.7 247 12.5 101210 95
2007-09-25 07:03:36 51°17.231 2°52.593 12.6 307 12.5 101210 95
2007-09-25 07:03:41 51°17.242 2°52.574 12.7 249 12.5 101210 95
2007-09-25 07:03:46 51°17.253 2°52.554 12.5 307 12.5 101210 95
2007-09-25 07:03:51 51°17.265 2°52.536 9.7 23 12.5 101230 95
2007-09-25 07:03:56 51°17.276 2°52.515 11.6 305 12.5 101230 95
2007-09-25 07:04:01 51°17.287 2°52.496 10.4 23 12.5 101220 95
2007-09-25 07:04:06 51°17.298 2°52.476 11.9 302 12.5 101220 95
2007-09-25 07:04:10 51°17.307 2°52.461 13.5 249 12.5 101220 94
2007-09-25 07:04:16 51°17.32 2°52.437 9.8 301 12.5 101220 94
2007-09-25 07:04:21 51°17.331 2°52.417 11 24 12.5 101220 94
2007-09-25 07:04:26 51°17.342 2°52.397 11.3 305 12.5 101220 94
2007-09-25 07:04:30 51°17.351 2°52.381 10.8 248 12.5 101200 94
2007-09-25 07:04:36 51°17.365 2°52.358 10.9 303 12.5 101200 94
2007-09-25 07:04:41 51°17.376 2°52.338 13.8 247 12.5 101220 94
2007-09-25 07:04:46 51°17.387 2°52.318 10.4 304 12.5 101220 94
2007-09-25 07:04:51 51°17.398 2°52.299 9.5 19 12.6 101200 94
2007-09-25 07:04:56 51°17.409 2°52.279 8.7 304 12.6 101200 94
2007-09-25 07:05:01 51°17.421 2°52.259 11.6 24 12.5 101210 94
2007-09-25 07:05:06 51°17.432 2°52.239 10.3 306 12.5 101210 94
2007-09-25 07:05:11 51°17.443 2°52.22 10.1 250 12.5 101200 93
2007-09-25 07:05:16 51°17.454 2°52.2 11.9 304 12.5 101200 93
2007-09-25 07:05:21 51°17.465 2°52.181 9.5 26 12.5 101210 93
2007-09-25 07:05:26 51°17.477 2°52.161 13.7 305 12.5 101210 93
2007-09-25 07:05:31 51°17.488 2°52.142 10.9 26 12.5 101200 93
2007-09-25 07:05:36 51°17.499 2°52.122 10.4 303 12.5 101200 93
2007-09-25 07:05:41 51°17.511 2°52.103 13.8 247 12.6 101210 94
2007-09-25 07:05:46 51°17.522 2°52.084 10.7 303 12.6 101210 94
2007-09-25 07:05:51 51°17.533 2°52.064 9.9 245 12.6 101210 93
2007-09-25 07:05:56 51°17.545 2°52.045 12.9 302 12.6 101210 93
2007-09-25 07:06:01 51°17.556 2°52.025 13.1 22 12.6 101200 93
2007-09-25 07:06:06 51°17.567 2°52.005 10.2 305 12.6 101200 93
2007-09-25 07:06:11 51°17.578 2°51.985 12.1 28 12.6 101210 93
2007-09-25 07:06:16 51°17.589 2°51.966 11.9 303 12.6 101210 93
2007-09-25 07:06:21 51°17.601 2°51.947 14 245 12.6 101200 93
2007-09-25 07:06:26 51°17.612 2°51.927 14.5 303 12.6 101200 93
2007-09-25 07:06:31 51°17.623 2°51.908 14.6 26 12.6 101210 93
2007-09-25 07:06:36 51°17.634 2°51.889 14.1 303 12.6 101210 93
2007-09-25 07:06:41 51°17.646 2°51.87 11.4 24 12.6 101220 93
2007-09-25 07:06:46 51°17.657 2°51.85 13.5 301 12.6 101220 93
2007-09-25 07:06:51 51°17.668 2°51.831 13.6 24 12.6 101210 93
2007-09-25 07:06:56 51°17.679 2°51.811 13.6 308 12.6 101210 93
2007-09-25 07:07:01 51°17.691 2°51.792 12.7 20 12.6 101200 93
2007-09-25 07:07:06 51°17.702 2°51.773 13.8 309 12.6 101200 93
2007-09-25 07:07:11 51°17.713 2°51.753 10.9 24 12.6 101210 93
2007-09-25 07:07:16 51°17.725 2°51.734 11.7 308 12.6 101210 93
2007-09-25 07:07:21 51°17.736 2°51.715 10 24 12.6 101210 93
2007-09-25 07:07:26 51°17.747 2°51.695 13.8 308 12.6 101210 93
2007-09-25 07:07:31 51°17.758 2°51.675 14 21 12.6 101210 92
2007-09-25 07:07:36 51°17.769 2°51.655 13.1 303 12.6 101210 92
2007-09-25 07:07:41 51°17.781 2°51.636 12.9 22 12.6 101210 93
2007-09-25 07:07:46 51°17.792 2°51.617 9.7 309 12.6 101210 93
2007-09-25 07:07:51 51°17.804 2°51.598 10.4 25 12.6 101210 93
2007-09-25 07:07:56 51°17.816 2°51.579 11 304 12.6 101210 93
2007-09-25 07:08:01 51°17.827 2°51.56 10.3 247 12.6 101210 92
2007-09-25 07:08:06 51°17.839 2°51.541 9.6 302 12.6 101210 92
2007-09-25 07:08:11 51°17.85 2°51.522 12.6 20 12.7 101210 93
2007-09-25 07:08:16 51°17.862 2°51.504 13.2 306 12.7 101210 93
2007-09-25 07:08:21 51°17.874 2°51.485 12.2 249 12.7 101200 93
2007-09-25 07:08:26 51°17.885 2°51.467 13 303 12.7 101200 93
2007-09-25 07:08:31 51°17.897 2°51.448 13 247 12.7 101210 93
2007-09-25 07:08:36 51°17.909 2°51.43 11.4 309 12.7 101210 93
2007-09-25 07:08:41 51°17.92 2°51.411 9.5 248 12.7 101220 92
2007-09-25 07:08:46 51°17.932 2°51.392 11.1 308 12.7 101220 92
2007-09-25 07:08:50 51°17.941 2°51.376 12.9 244 12.7 101200 92
2007-09-25 07:08:56 51°17.955 2°51.353 12.9 305 12.7 101200 92
2007-09-25 07:09:01 51°17.966 2°51.334 14.1 21 12.7 101200 92
2007-09-25 07:09:06 51°17.978 2°51.315 13.1 308 12.7 101200 92
2007-09-25 07:09:11 51°17.99 2°51.296 10.4 247 12.7 101210 92
2007-09-25 07:09:16 51°18.001 2°51.277 9.4 307 12.7 101210 92
2007-09-25 07:09:21 51°18.014 2°51.258 12.3 245 12.7 101200 92
2007-09-25 07:09:26 51°18.026 2°51.24 13 306 12.7 101200 92
2007-09-25 07:09:31 51°18.038 2°51.221 10.4 24 12.7 101220 92
2007-09-25 07:09:36 51°18.05 2°51.203 11.9 311 12.7 101220 92
2007-09-25 07:09:41 51°18.063 2°51.185 11.6 23 12.7 101220 92
2007-09-25 07:09:46 51°18.075 2°51.167 10 303 12.7 101220 92
2007-09-25 07:09:50 51°18.085 2°51.152 10.1 249 12.7 101200 92
2007-09-25 07:09:56 51°18.099 2°51.131 11.8 309 12.7 101200 92
2007-09-25 07:10:01 51°18.111 2°51.113 10.5 248 12.7 101200 92
2007-09-25 07:10:06 51°18.123 2°51.094 12.5 304 12.7 101200 92
2007-09-25 07:10:11 51°18.135 2°51.076 9.9 251 12.7 101210 92
2007-09-25 07:10:16 51°18.147 2°51.057 9.3 303 12.7 101210 92
2007-09-25 07:10:21 51°18.159 2°51.039 11.9 248 12.7 101220 92
2007-09-25 07:10:26 51°18.171 2°51.021 12.7 305 12.7 101220 92
2007-09-25 07:10:31 51°18.183 2°51.003 9.6 250 12.7 101200 92
2007-09-25 07:10:36 51°18.195 2°50.985 9.7 302 12.7 101200 92
2007-09-25 07:10:41 51°18.207 2°50.967 10.6 252 12.7 101190 92
2007-09-25 07:10:46 51°18.219 2°50.95 9.9 302 12.7 101190 92
2007-09-25 07:10:51 51°18.231 2°50.932 9.9 250 12.7 101220 92
2007-09-25 07:10:56 51°18.243 2°50.914 9.2 302 12.7 101220 92
2007-09-25 07:11:01 51°18.254 2°50.896 10.7 248 12.7 101200 92
2007-09-25 07:11:06 51°18.266 2°50.877 11.1 303 12.7 101200 92
2007-09-25 07:11:11 51°18.278 2°50.859 10.4 248 12.7 101200 92
2007-09-25 07:11:16 51°18.29 2°50.841 9.3 308 12.7 101200 92
2007-09-25 07:11:21 51°18.302 2°50.824 10.5 20 12.7 101210 92
2007-09-25 07:11:26 51°18.313 2°50.805 8.6 304 12.7 101210 92
2007-09-25 07:11:30 51°18.323 2°50.791 11.2 23 12.7 101200 92
2007-09-25 07:11:36 51°18.337 2°50.769 7.9 282 12.7 101200 92
2007-09-25 07:11:41 51°18.349 2°50.752 9.7 254 12.7 101190 92
2007-09-25 07:11:46 51°18.362 2°50.74 4.6 309 12.7 101190 92
2007-09-25 07:11:51 51°18.375 2°50.734 7 268 12.7 101200 92
2007-09-25 07:11:56 51°18.386 2°50.73 5.3 58 12.7 101200 92
2007-09-25 07:12:01 51°18.397 2°50.731 4.6 24 12.7 101200 92
2007-09-25 07:12:06 51°18.407 2°50.735 2.9 51 12.7 101200 92
2007-09-25 07:12:11 51°18.415 2°50.741 3.5 21 12.7 101210 92
2007-09-25 07:12:16 51°18.422 2°50.75 4.4 58 12.7 101210 92
2007-09-25 07:12:21 51°18.43 2°50.759 4.4 20 12.7 101210 92
2007-09-25 07:12:26 51°18.436 2°50.77 4.3 58 12.7 101210 92
2007-09-25 07:12:31 51°18.443 2°50.781 5.6 43 12.7 101190 92
2007-09-25 07:12:36 51°18.448 2°50.794 5.7 39 12.7 101190 92
2007-09-25 07:12:41 51°18.454 2°50.807 6.2 37 12.8 101200 93
2007-09-25 07:12:46 51°18.459 2°50.821 5.9 32 12.8 101200 93
2007-09-25 07:12:51 51°18.464 2°50.834 5.9 32 12.8 101200 93
2007-09-25 07:12:56 51°18.468 2°50.85 6.4 36 12.8 101200 93
2007-09-25 07:13:01 51°18.473 2°50.863 7.8 32 12.8 101190 93
2007-09-25 07:13:06 51°18.475 2°50.877 8.2 31 12.8 101190 93
2007-09-25 07:13:11 51°18.477 2°50.89 8.6 32 12.8 101210 93
2007-09-25 07:13:16 51°18.479 2°50.903 8.5 31 12.8 101210 93
2007-09-25 07:13:21 51°18.48 2°50.915 7.9 32 12.8 101180 92
2007-09-25 07:13:26 51°18.481 2°50.926 8.1 35 12.8 101180 92
2007-09-25 07:13:31 51°18.484 2°50.937 6.8 36 12.8 101200 92
2007-09-25 07:13:36 51°18.484 2°50.947 7.7 37 12.8 101200 92
2007-09-25 07:13:41 51°18.487 2°50.956 7.4 32 12.8 101190 92
2007-09-25 07:13:46 51°18.488 2°50.964 8.5 38 12.8 101190 92
2007-09-25 07:13:51 51°18.491 2°50.971 7.3 39 12.7 101190 91
2007-09-25 07:13:56 51°18.493 2°50.978 6.9 54 12.7 101190 91
2007-09-25 07:14:01 51°18.495 2°50.985 7.1 23 12.7 101180 92
2007-09-25 07:14:06 51°18.498 2°50.99 8.3 54 12.7 101180 92
2007-09-25 07:14:10 51°18.5 2°50.994 6.6 21 12.8 101200 92
2007-09-25 07:14:16 51°18.503 2°50.999 7 57 12.8 101200 92
2007-09-25 07:14:21 51°18.505 2°51.003 9.2 22 12.8 101200 92
2007-09-25 07:14:26 51°18.507 2°51.006 8.4 57 12.8 101200 92
2007-09-25 07:14:31 51°18.509 2°51.009 7.9 26 12.7 101210 92
2007-09-25 07:14:36 51°18.51 2°51.012 7.9 55 12.7 101210 92
2007-09-25 07:14:41 51°18.512 2°51.015 8.6 26 12.7 101190 92
2007-09-25 07:14:46 51°18.513 2°51.017 8.2 43 12.7 101190 92
2007-09-25 07:14:51 51°18.514 2°51.02 8.3 27 12.7 101210 92
2007-09-25 07:14:56 51°18.514 2°51.023 8.3 50 12.7 101210 92
2007-09-25 07:15:01 51°18.515 2°51.025 7.4 42 12.7 101190 91
2007-09-25 07:15:06 51°18.515 2°51.028 8.3 42 12.7 101190 91
2007-09-25 07:15:11 51°18.516 2°51.03 9 41 12.7 101200 92
2007-09-25 07:15:16 51°18.516 2°51.032 9.5 40 12.7 101200 92
2007-09-25 07:15:21 51°18.516 2°51.035 8.7 40 12.7 101200 92
2007-09-25 07:15:26 51°18.516 2°51.037 9.1 56 12.7 101200 92
2007-09-25 07:15:31 51°18.516 2°51.039 7.4 44 12.7 101200 92
2007-09-25 07:15:36 51°18.516 2°51.041 8 43 12.7 101200 92
2007-09-25 07:15:41 51°18.516 2°51.043 8 38 12.7 101200 92
2007-09-25 07:15:46 51°18.516 2°51.045 7.6 39 12.7 101200 92
2007-09-25 07:15:50 51°18.516 2°51.047 9.1 37 12.7 101190 92
2007-09-25 07:15:56 51°18.516 2°51.05 9.4 35 12.7 101190 92
2007-09-25 07:16:01 51°18.516 2°51.051 8 36 12.7 101200 92
2007-09-25 07:16:06 51°18.516 2°51.053 8.3 37 12.7 101200 92
2007-09-25 07:16:11 51°18.515 2°51.054 8.9 38 12.6 101190 92
2007-09-25 07:16:16 51°18.515 2°51.056 8.8 34 12.6 101190 92
2007-09-25 07:16:21 51°18.514 2°51.057 9.4 33 12.7 101190 92
2007-09-25 07:16:26 51°18.513 2°51.058 7.9 34 12.7 101190 92
2007-09-25 07:16:31 51°18.513 2°51.059 8 34 12.7 101190 92
2007-09-25 07:16:36 51°18.512 2°51.06 8.1 37 12.7 101190 92
2007-09-25 07:16:41 51°18.511 2°51.061 8.9 30 12.7 101180 93
2007-09-25 07:16:46 51°18.511 2°51.061 8.9 30 12.7 101180 93
2007-09-25 07:16:51 51°18.51 2°51.062 8.7 30 12.7 101190 93
2007-09-25 07:16:56 51°18.509 2°51.063 9.7 30 12.7 101190 93
2007-09-25 07:17:01 51°18.508 2°51.063 9.4 28 12.8 101200 93
2007-09-25 07:17:06 51°18.507 2°51.064 9.9 29 12.8 101200 93
2007-09-25 07:17:11 51°18.506 2°51.065 9.1 31 12.7 101200 93
2007-09-25 07:17:16 51°18.505 2°51.065 10.8 28 12.7 101200 93
2007-09-25 07:17:21 51°18.504 2°51.066 9.4 28 12.7 101190 92
2007-09-25 07:17:26 51°18.503 2°51.066 10.1 27 12.7 101190 92
2007-09-25 07:17:31 51°18.502 2°51.066 9.6 25 12.7 101190 92
2007-09-25 07:17:36 51°18.501 2°51.066 9.9 25 12.7 101190 92
2007-09-25 07:17:41 51°18.5 2°51.067 10.5 27 12.7 101190 92
2007-09-25 07:17:46 51°18.499 2°51.067 9.2 26 12.7 101190 92
2007-09-25 07:17:50 51°18.498 2°51.067 9 30 12.7 101190 92
2007-09-25 07:17:56 51°18.497 2°51.067 10.6 26 12.7 101190 92
2007-09-25 07:18:01 51°18.496 2°51.067 9.4 23 12.7 101190 92
2007-09-25 07:18:06 51°18.495 2°51.067 8.8 21 12.7 101190 92
2007-09-25 07:18:11 51°18.494 2°51.067 9.1 21 12.6 101190 92
2007-09-25 07:18:16 51°18.493 2°51.067 9.4 22 12.6 101190 92
2007-09-25 07:18:21 51°18.492 2°51.067 9.7 20 12.6 101190 92
2007-09-25 07:18:26 51°18.491 2°51.066 8.9 21 12.6 101190 92
2007-09-25 07:18:30 51°18.49 2°51.067 9.2 21 12.6 101190 92
2007-09-25 07:18:36 51°18.488 2°51.067 9.5 20 12.6 101190 92
2007-09-25 07:18:41 51°18.487 2°51.067 9.2 18 12.7 101190 93
2007-09-25 07:18:46 51°18.486 2°51.067 9.9 19 12.7 101190 93
2007-09-25 07:18:51 51°18.485 2°51.066 9.6 16 12.6 101190 92
2007-09-25 07:18:56 51°18.484 2°51.066 9.4 20 12.6 101190 92
2007-09-25 07:19:01 51°18.483 2°51.066 8.9 16 12.6 101190 92
2007-09-25 07:19:06 51°18.482 2°51.066 9.2 18 12.6 101190 92
2007-09-25 07:19:11 51°18.48 2°51.066 9.7 20 12.6 101190 92
2007-09-25 07:19:16 51°18.479 2°51.067 8.6 20 12.6 101190 92
2007-09-25 07:19:21 51°18.477 2°51.067 8.4 12 12.7 101190 93
2007-09-25 07:19:26 51°18.476 2°51.069 10.3 18 12.7 101190 93
2007-09-25 07:19:31 51°18.474 2°51.07 10.5 16 12.7 101190 93
2007-09-25 07:19:36 51°18.473 2°51.073 10.8 20 12.7 101190 93
2007-09-25 07:19:41 51°18.471 2°51.077 10.1 23 12.7 101190 93
2007-09-25 07:19:46 51°18.469 2°51.082 9.8 25 12.7 101190 93
2007-09-25 07:19:51 51°18.467 2°51.088 8.5 26 12.7 101180 93
2007-09-25 07:19:56 51°18.467 2°51.095 8 28 12.7 101180 93
2007-09-25 07:20:01 51°18.466 2°51.102 8.8 35 12.7 101190 93
2007-09-25 07:20:06 51°18.466 2°51.109 8.3 37 12.7 101190 93
2007-09-25 07:20:11 51°18.467 2°51.117 7.6 39 12.7 101180 93
2007-09-25 07:20:16 51°18.469 2°51.124 7.3 42 12.7 101180 93
2007-09-25 07:20:21 51°18.471 2°51.132 7.5 41 12.7 101190 93
2007-09-25 07:20:26 51°18.473 2°51.141 7 42 12.7 101190 93
2007-09-25 07:20:30 51°18.476 2°51.149 6.6 38 12.7 101190 93
2007-09-25 07:20:36 51°18.48 2°51.164 6.2 32 12.7 101190 93
2007-09-25 07:20:41 51°18.484 2°51.177 6.2 30 12.7 101200 93
2007-09-25 07:20:46 51°18.487 2°51.193 5.3 33 12.7 101200 93
2007-09-25 07:20:51 51°18.494 2°51.209 5 33 12.7 101200 92
2007-09-25 07:20:56 51°18.498 2°51.228 6 27 12.7 101200 92
2007-09-25 07:21:01 51°18.504 2°51.246 5.5 24 12.7 101200 93
2007-09-25 07:21:06 51°18.509 2°51.266 5.5 26 12.7 101200 93
2007-09-25 07:21:11 51°18.516 2°51.286 4.4 19 12.7 101180 93
2007-09-25 07:21:16 51°18.521 2°51.309 6.1 23 12.7 101180 93
2007-09-25 07:21:21 51°18.529 2°51.328 5.9 22 12.7 101200 93
2007-09-25 07:21:26 51°18.532 2°51.351 5.7 22 12.7 101200 93
2007-09-25 07:21:31 51°18.54 2°51.372 5.4 22 12.7 101190 93
2007-09-25 07:21:36 51°18.544 2°51.396 6 27 12.7 101190 93
2007-09-25 07:21:41 51°18.552 2°51.417 5.9 15 12.7 101190 93
2007-09-25 07:21:46 51°18.556 2°51.44 6.1 23 12.7 101190 93
2007-09-25 07:21:51 51°18.562 2°51.463 5.3 25 12.6 101180 92
2007-09-25 07:21:56 51°18.569 2°51.485 5.3 18 12.6 101180 92
2007-09-25 07:22:01 51°18.573 2°51.509 6.6 22 12.6 101200 92
2007-09-25 07:22:06 51°18.58 2°51.531 5.4 22 12.6 101200 92
2007-09-25 07:22:11 51°18.585 2°51.555 7.3 20 12.6 101200 93
2007-09-25 07:22:16 51°18.59 2°51.578 6.2 16 12.6 101200 93
2007-09-25 07:22:21 51°18.594 2°51.602 5.9 19 12.6 101200 93
2007-09-25 07:22:26 51°18.599 2°51.625 5.3 22 12.6 101200 93
2007-09-25 07:22:30 51°18.605 2°51.642 6 25 12.6 101200 93
2007-09-25 07:22:36 51°18.61 2°51.671 5.7 23 12.6 101200 93
2007-09-25 07:22:41 51°18.616 2°51.693 4.8 28 12.6 101200 93
2007-09-25 07:22:46 51°18.621 2°51.715 6.8 21 12.6 101200 93
2007-09-25 07:22:51 51°18.626 2°51.738 4.8 24 12.6 101200 93
2007-09-25 07:22:56 51°18.633 2°51.76 5.8 22 12.6 101200 93
2007-09-25 07:23:01 51°18.638 2°51.782 5.9 26 12.6 101200 93
2007-09-25 07:23:06 51°18.644 2°51.805 5.6 26 12.6 101200 93
2007-09-25 07:23:11 51°18.651 2°51.828 5.1 26 12.6 101200 93
2007-09-25 07:23:16 51°18.657 2°51.85 6.6 25 12.6 101200 93
2007-09-25 07:23:21 51°18.662 2°51.874 5.9 19 12.6 101210 93
2007-09-25 07:23:26 51°18.669 2°51.897 5.9 25 12.6 101210 93
2007-09-25 07:23:31 51°18.676 2°51.919 6.3 17 12.6 101200 93
2007-09-25 07:23:36 51°18.681 2°51.943 5.6 21 12.6 101200 93
2007-09-25 07:23:41 51°18.688 2°51.965 5.4 26 12.6 101200 93
2007-09-25 07:23:46 51°18.693 2°51.989 6.9 27 12.6 101200 93
2007-09-25 07:23:51 51°18.7 2°52.011 5.5 28 12.6 101200 92
2007-09-25 07:23:56 51°18.705 2°52.035 6.2 26 12.6 101200 92
2007-09-25 07:24:01 51°18.712 2°52.057 5.1 30 12.6 101190 92
2007-09-25 07:24:06 51°18.717 2°52.082 5.4 18 12.6 101190 92
2007-09-25 07:24:11 51°18.723 2°52.105 4.4 19 12.6 101200 92
2007-09-25 07:24:16 51°18.729 2°52.128 6.5 23 12.6 101200 92
2007-09-25 07:24:21 51°18.734 2°52.151 4.7 23 12.6 101200 92
2007-09-25 07:24:26 51°18.739 2°52.175 6.4 29 12.6 101200 92
2007-09-25 07:24:31 51°18.745 2°52.198 5.4 26 12.6 101200 92
2007-09-25 07:24:36 51°18.75 2°52.221 4.5 19 12.6 101200 92
2007-09-25 07:24:41 51°18.757 2°52.244 5 19 12.6 101210 93
2007-09-25 07:24:46 51°18.762 2°52.267 5.1 30 12.6 101210 93
2007-09-25 07:24:51 51°18.768 2°52.29 6.6 20 12.6 101200 92
2007-09-25 07:24:56 51°18.773 2°52.314 4.6 22 12.6 101200 92
2007-09-25 07:25:01 51°18.78 2°52.337 6.9 25 12.6 101210 93
2007-09-25 07:25:06 51°18.784 2°52.36 4.1 30 12.6 101210 93
2007-09-25 07:25:11 51°18.791 2°52.383 5.4 24 12.7 101200 93
2007-09-25 07:25:16 51°18.796 2°52.406 6.6 26 12.7 101200 93
2007-09-25 07:25:21 51°18.803 2°52.428 5.7 28 12.7 101200 93
2007-09-25 07:25:26 51°18.808 2°52.451 6.7 26 12.7 101200 93
2007-09-25 07:25:31 51°18.815 2°52.473 5.8 30 12.7 101210 93
2007-09-25 07:25:36 51°18.819 2°52.496 6 25 12.7 101210 93
2007-09-25 07:25:41 51°18.826 2°52.518 5.5 24 12.7 101200 92
2007-09-25 07:25:46 51°18.832 2°52.541 5.7 27 12.7 101200 92
2007-09-25 07:25:50 51°18.837 2°52.559 6.2 25 12.7 101200 92
2007-09-25 07:25:56 51°18.845 2°52.586 5.2 25 12.7 101200 92
2007-09-25 07:26:01 51°18.851 2°52.609 5.7 25 12.6 101200 92
2007-09-25 07:26:06 51°18.858 2°52.63 5.7 25 12.6 101200 92
2007-09-25 07:26:11 51°18.862 2°52.654 4.8 31 12.6 101200 92
2007-09-25 07:26:16 51°18.871 2°52.676 5.6 27 12.6 101200 92
2007-09-25 07:26:21 51°18.876 2°52.7 5.3 28 12.6 101210 91
2007-09-25 07:26:26 51°18.882 2°52.721 5 27 12.6 101210 91
2007-09-25 07:26:31 51°18.888 2°52.744 5 24 12.6 101210 92
2007-09-25 07:26:36 51°18.894 2°52.769 4.9 26 12.6 101210 92
2007-09-25 07:26:41 51°18.902 2°52.792 4.7 25 12.6 101210 92
2007-09-25 07:26:46 51°18.907 2°52.815 4.5 26 12.6 101210 92
2007-09-25 07:26:51 51°18.912 2°52.838 6 27 12.6 101200 91
2007-09-25 07:26:56 51°18.918 2°52.862 4.7 29 12.6 101200 91
2007-09-25 07:27:01 51°18.925 2°52.884 4.3 25 12.6 101200 92
2007-09-25 07:27:06 51°18.93 2°52.907 3.3 15 12.6 101200 92
2007-09-25 07:27:11 51°18.936 2°52.93 5 24 12.6 101200 91
2007-09-25 07:27:16 51°18.943 2°52.952 7.1 25 12.6 101200 91
2007-09-25 07:27:21 51°18.948 2°52.975 5.9 26 12.6 101200 91
2007-09-25 07:27:26 51°18.956 2°52.997 6 28 12.6 101200 91
2007-09-25 07:27:31 51°18.96 2°53.02 5.9 29 12.6 101200 92
2007-09-25 07:27:36 51°18.968 2°53.042 5.6 25 12.6 101200 92
2007-09-25 07:27:41 51°18.973 2°53.066 5.4 32 12.6 101220 92
2007-09-25 07:27:46 51°18.981 2°53.087 6.5 27 12.6 101220 92
2007-09-25 07:27:50 51°18.984 2°53.106 6 26 12.6 101210 91
2007-09-25 07:27:56 51°18.992 2°53.133 5.1 26 12.6 101210 91
2007-09-25 07:28:01 51°18.998 2°53.156 5 26 12.6 101210 92
2007-09-25 07:28:06 51°19.002 2°53.179 4.6 30 12.6 101210 92
2007-09-25 07:28:11 51°19.009 2°53.201 5 24 12.6 101210 91
2007-09-25 07:28:16 51°19.014 2°53.225 5.3 17 12.6 101210 91
2007-09-25 07:28:21 51°19.02 2°53.247 4.4 24 12.6 101210 91
2007-09-25 07:28:26 51°19.025 2°53.272 4.9 30 12.6 101210 91
2007-09-25 07:28:31 51°19.034 2°53.293 5.5 27 12.6 101210 91
2007-09-25 07:28:36 51°19.037 2°53.317 5 29 12.6 101210 91
2007-09-25 07:28:41 51°19.044 2°53.34 6.5 14 12.6 101210 91
2007-09-25 07:28:46 51°19.05 2°53.363 7.2 30 12.6 101210 91
2007-09-25 07:28:51 51°19.056 2°53.386 5.5 28 12.6 101200 91
2007-09-25 07:28:56 51°19.062 2°53.409 7.5 30 12.6 101200 91
2007-09-25 07:29:01 51°19.067 2°53.433 6.8 35 12.7 101200 92
2007-09-25 07:29:06 51°19.074 2°53.455 6.6 32 12.7 101200 92
2007-09-25 07:29:11 51°19.079 2°53.479 6.9 30 12.7 101210 92
2007-09-25 07:29:16 51°19.086 2°53.501 5.9 36 12.7 101210 92
2007-09-25 07:29:21 51°19.091 2°53.524 7 32 12.7 101200 91
2007-09-25 07:29:26 51°19.097 2°53.548 5.7 33 12.7 101200 91
2007-09-25 07:29:30 51°19.103 2°53.566 5.2 31 12.7 101210 91
2007-09-25 07:29:36 51°19.109 2°53.594 4.6 35 12.7 101210 91
2007-09-25 07:29:41 51°19.115 2°53.616 5.2 27 12.7 101210 91
2007-09-25 07:29:46 51°19.119 2°53.641 4.6 31 12.7 101210 91
2007-09-25 07:29:50 51°19.124 2°53.66 4 37 12.7 101200 90
2007-09-25 07:29:56 51°19.132 2°53.686 5.8 28 12.7 101200 90
2007-09-25 07:30:01 51°19.136 2°53.708 5 25 12.7 101210 90
2007-09-25 07:30:06 51°19.141 2°53.73 6.3 26 12.7 101210 90
2007-09-25 07:30:11 51°19.145 2°53.755 4.5 32 12.6 101210 90
2007-09-25 07:30:16 51°19.153 2°53.776 4 33 12.6 101210 90
2007-09-25 07:30:21 51°19.156 2°53.799 6.9 25 12.6 101210 90
2007-09-25 07:30:26 51°19.161 2°53.821 6 21 12.6 101210 90
2007-09-25 07:30:31 51°19.165 2°53.846 6.2 25 12.7 101210 90
2007-09-25 07:30:36 51°19.173 2°53.867 6.8 34 12.7 101210 90
2007-09-25 07:30:41 51°19.177 2°53.891 7.2 25 12.7 101210 91
2007-09-25 07:30:46 51°19.182 2°53.914 5.5 28 12.7 101210 91
2007-09-25 07:30:51 51°19.187 2°53.938 6.9 25 12.7 101210 90
2007-09-25 07:30:56 51°19.193 2°53.96 6.2 31 12.7 101210 90
2007-09-25 07:31:01 51°19.198 2°53.984 6.4 31 12.7 101210 90
2007-09-25 07:31:06 51°19.204 2°54.006 5.6 27 12.7 101210 90
2007-09-25 07:31:11 51°19.209 2°54.029 6.1 26 12.7 101210 91
2007-09-25 07:31:16 51°19.215 2°54.052 5 27 12.7 101210 91
2007-09-25 07:31:21 51°19.221 2°54.076 6 29 12.7 101210 90
2007-09-25 07:31:26 51°19.228 2°54.098 6.7 29 12.7 101210 90
2007-09-25 07:31:31 51°19.232 2°54.12 6.3 29 12.7 101200 90
2007-09-25 07:31:36 51°19.239 2°54.144 5.8 30 12.7 101200 90
2007-09-25 07:31:41 51°19.245 2°54.167 6.2 32 12.7 101200 90
2007-09-25 07:31:46 51°19.25 2°54.19 5.1 36 12.7 101200 90
2007-09-25 07:31:50 51°19.255 2°54.207 5.4 33 12.7 101210 90
2007-09-25 07:31:56 51°19.261 2°54.235 4.9 39 12.7 101210 90
2007-09-25 07:32:01 51°19.268 2°54.256 4.5 43 12.7 101210 89
2007-09-25 07:32:06 51°19.273 2°54.279 4 31 12.7 101210 89
2007-09-25 07:32:11 51°19.279 2°54.3 5 35 12.7 101210 89
2007-09-25 07:32:16 51°19.284 2°54.325 4 26 12.7 101210 89
2007-09-25 07:32:21 51°19.291 2°54.347 4.8 32 12.7 101200 89
2007-09-25 07:32:26 51°19.295 2°54.371 3.8 25 12.7 101200 89
2007-09-25 07:32:31 51°19.302 2°54.392 4.6 28 12.7 101210 89
2007-09-25 07:32:36 51°19.307 2°54.416 4.1 32 12.7 101210 89
2007-09-25 07:32:41 51°19.314 2°54.438 3.9 27 12.7 101200 90
2007-09-25 07:32:46 51°19.32 2°54.46 6.4 28 12.7 101200 90
2007-09-25 07:32:51 51°19.325 2°54.482 5.1 34 12.7 101210 90
2007-09-25 07:32:56 51°19.331 2°54.505 4.7 30 12.7 101210 90
2007-09-25 07:33:01 51°19.337 2°54.528 4.7 29 12.8 101200 90
2007-09-25 07:33:06 51°19.342 2°54.551 6 35 12.8 101200 90
2007-09-25 07:33:11 51°19.347 2°54.574 5.1 30 12.8 101210 90
2007-09-25 07:33:16 51°19.354 2°54.597 6.1 31 12.8 101210 90
2007-09-25 07:33:21 51°19.359 2°54.62 4.8 26 12.8 101210 90
2007-09-25 07:33:26 51°19.365 2°54.643 5.8 21 12.8 101210 90
2007-09-25 07:33:31 51°19.371 2°54.666 6.1 20 12.8 101210 90
2007-09-25 07:33:36 51°19.376 2°54.69 5.6 28 12.8 101210 90
2007-09-25 07:33:41 51°19.384 2°54.711 6.7 28 12.8 101210 90
2007-09-25 07:33:46 51°19.387 2°54.736 5.3 29 12.8 101210 90
2007-09-25 07:33:50 51°19.394 2°54.753 6.4 27 12.9 101200 90
2007-09-25 07:33:56 51°19.4 2°54.781 5.2 28 12.9 101200 90
2007-09-25 07:34:01 51°19.406 2°54.804 5.6 31 12.9 101200 91
2007-09-25 07:34:06 51°19.412 2°54.827 6.2 33 12.9 101200 91
2007-09-25 07:34:11 51°19.417 2°54.849 6.9 24 12.9 101200 90
2007-09-25 07:34:16 51°19.423 2°54.872 6.1 31 12.9 101200 90
2007-09-25 07:34:21 51°19.429 2°54.895 5.3 36 12.9 101210 89
2007-09-25 07:34:26 51°19.436 2°54.917 6.3 29 12.9 101210 89
2007-09-25 07:34:31 51°19.441 2°54.939 6.3 31 12.9 101200 89
2007-09-25 07:34:36 51°19.447 2°54.962 6.7 34 12.9 101200 89
2007-09-25 07:34:41 51°19.452 2°54.985 6.3 36 12.9 101200 89
2007-09-25 07:34:46 51°19.458 2°55.007 4.5 26 12.9 101200 89
2007-09-25 07:34:50 51°19.461 2°55.026 5.2 23 12.9 101200 89
2007-09-25 07:34:56 51°19.468 2°55.053 5.6 22 12.9 101200 89
2007-09-25 07:35:01 51°19.473 2°55.077 6.1 32 12.9 101200 88
2007-09-25 07:35:06 51°19.479 2°55.099 7.5 23 12.9 101200 88
2007-09-25 07:35:11 51°19.483 2°55.123 5.2 30 12.9 101200 89
2007-09-25 07:35:16 51°19.489 2°55.147 5.7 31 12.9 101200 89
2007-09-25 07:35:21 51°19.494 2°55.17 6.4 26 12.9 101210 90
2007-09-25 07:35:26 51°19.499 2°55.193 5.9 30 12.9 101210 90
2007-09-25 07:35:31 51°19.504 2°55.217 5.6 33 12.9 101200 90
2007-09-25 07:35:36 51°19.511 2°55.239 5.6 32 12.9 101200 90
2007-09-25 07:35:41 51°19.516 2°55.262 4.2 31 12.9 101200 89
2007-09-25 07:35:46 51°19.522 2°55.285 5.9 27 12.9 101200 89
2007-09-25 07:35:51 51°19.528 2°55.308 4.6 24 12.9 101200 89
2007-09-25 07:35:56 51°19.533 2°55.33 6 25 12.9 101200 89
2007-09-25 07:36:01 51°19.539 2°55.353 3.8 37 13 101210 89
2007-09-25 07:36:06 51°19.544 2°55.376 5.9 30 13 101210 89
2007-09-25 07:36:11 51°19.55 2°55.399 5.2 36 13 101210 90
2007-09-25 07:36:16 51°19.556 2°55.421 6.7 28 13 101210 90
2007-09-25 07:36:21 51°19.56 2°55.444 5.1 23 13 101210 90
2007-09-25 07:36:26 51°19.566 2°55.467 5.6 28 13 101210 90
2007-09-25 07:36:31 51°19.573 2°55.49 5.8 20 13 101200 90
2007-09-25 07:36:36 51°19.577 2°55.513 6.7 23 13 101200 90
2007-09-25 07:36:41 51°19.583 2°55.536 4.8 21 13 101200 89
2007-09-25 07:36:46 51°19.587 2°55.56 4.7 23 13 101200 89
2007-09-25 07:36:50 51°19.593 2°55.578 6 28 13.1 101200 90
2007-09-25 07:36:56 51°19.598 2°55.606 7 27 13.1 101200 90
2007-09-25 07:37:01 51°19.605 2°55.629 4.5 36 13.1 101200 90
2007-09-25 07:37:06 51°19.61 2°55.651 6.1 22 13.1 101200 90
2007-09-25 07:37:11 51°19.615 2°55.675 5.2 26 13.2 101200 91
2007-09-25 07:37:16 51°19.623 2°55.697 6 30 13.2 101200 91
2007-09-25 07:37:21 51°19.627 2°55.72 6.5 28 13.2 101200 91
2007-09-25 07:37:26 51°19.632 2°55.743 5.5 38 13.2 101200 91
2007-09-25 07:37:31 51°19.639 2°55.764 5.6 35 13.2 101200 91
2007-09-25 07:37:36 51°19.645 2°55.787 4.8 33 13.2 101200 91
2007-09-25 07:37:41 51°19.652 2°55.808 6.5 27 13.2 101200 91
2007-09-25 07:37:46 51°19.657 2°55.831 6.8 27 13.2 101200 91
2007-09-25 07:37:51 51°19.663 2°55.854 5.6 27 13.2 101190 90
2007-09-25 07:37:56 51°19.669 2°55.877 5 30 13.2 101190 90
2007-09-25 07:38:01 51°19.675 2°55.899 5.3 28 13.2 101200 90
2007-09-25 07:38:06 51°19.68 2°55.922 5.1 27 13.2 101200 90
2007-09-25 07:38:11 51°19.686 2°55.944 5.4 25 13.2 101190 90
2007-09-25 07:38:16 51°19.691 2°55.968 4.6 22 13.2 101190 90
2007-09-25 07:38:21 51°19.698 2°55.991 6.4 25 13.2 101200 89
2007-09-25 07:38:26 51°19.702 2°56.014 5.7 26 13.2 101200 89
2007-09-25 07:38:31 51°19.708 2°56.037 5.9 26 13.2 101190 90
2007-09-25 07:38:36 51°19.713 2°56.062 5 28 13.2 101190 90
2007-09-25 07:38:41 51°19.719 2°56.084 7.8 20 13.2 101200 90
2007-09-25 07:38:46 51°19.723 2°56.108 6.2 19 13.2 101200 90
2007-09-25 07:38:51 51°19.729 2°56.131 7 21 13.2 101210 90
2007-09-25 07:38:56 51°19.733 2°56.156 6.3 26 13.2 101210 90
2007-09-25 07:39:01 51°19.74 2°56.177 7.4 27 13.2 101200 90
2007-09-25 07:39:06 51°19.745 2°56.2 7.5 28 13.2 101200 90
2007-09-25 07:39:11 51°19.75 2°56.223 5.6 28 13.1 101190 89
2007-09-25 07:39:16 51°19.756 2°56.248 6.7 27 13.1 101190 89
2007-09-25 07:39:21 51°19.763 2°56.27 7 25 13.1 101190 89
2007-09-25 07:39:26 51°19.766 2°56.293 6.3 26 13.1 101190 89
2007-09-25 07:39:31 51°19.771 2°56.317 6 26 13.1 101210 89
2007-09-25 07:39:36 51°19.777 2°56.341 5.1 27 13.1 101210 89
2007-09-25 07:39:41 51°19.782 2°56.363 6.3 22 13 101190 89
2007-09-25 07:39:46 51°19.786 2°56.388 5.5 23 13 101190 89
2007-09-25 07:39:51 51°19.793 2°56.41 6 17 13 101200 88
2007-09-25 07:39:56 51°19.797 2°56.433 7.7 17 13 101200 88
2007-09-25 07:40:01 51°19.803 2°56.456 6.7 21 13 101200 88
2007-09-25 07:40:06 51°19.809 2°56.479 7.4 21 13 101200 88
2007-09-25 07:40:11 51°19.814 2°56.502 6.7 20 13 101190 89
2007-09-25 07:40:16 51°19.82 2°56.525 8.1 21 13 101190 89
2007-09-25 07:40:21 51°19.825 2°56.549 8.3 23 13 101210 89
2007-09-25 07:40:26 51°19.832 2°56.571 8.6 25 13 101210 89
2007-09-25 07:40:31 51°19.836 2°56.594 8.2 25 13 101200 89
2007-09-25 07:40:36 51°19.844 2°56.616 7.2 26 13 101200 89
2007-09-25 07:40:41 51°19.848 2°56.641 7.2 25 12.9 101190 89
2007-09-25 07:40:46 51°19.855 2°56.662 6.3 27 12.9 101190 89
2007-09-25 07:40:51 51°19.86 2°56.685 8.1 25 12.9 101210 89
2007-09-25 07:40:56 51°19.865 2°56.708 6.5 30 12.9 101210 89
2007-09-25 07:41:01 51°19.871 2°56.73 8.9 21 12.9 101210 89
2007-09-25 07:41:06 51°19.875 2°56.754 7.2 27 12.9 101210 89
2007-09-25 07:41:11 51°19.882 2°56.776 7.1 21 12.9 101200 90
2007-09-25 07:41:16 51°19.887 2°56.799 6.8 25 12.9 101200 90
2007-09-25 07:41:21 51°19.893 2°56.821 7.1 29 12.9 101190 89
2007-09-25 07:41:26 51°19.898 2°56.845 6.4 26 12.9 101190 89
2007-09-25 07:41:31 51°19.905 2°56.867 6.3 27 12.8 101190 89
2007-09-25 07:41:36 51°19.909 2°56.891 6.9 20 12.8 101190 89
2007-09-25 07:41:41 51°19.917 2°56.913 5.1 27 12.8 101200 89
2007-09-25 07:41:46 51°19.921 2°56.937 6.3 23 12.8 101200 89
2007-09-25 07:41:51 51°19.927 2°56.959 6.4 22 12.8 101190 89
2007-09-25 07:41:56 51°19.931 2°56.984 6.2 29 12.8 101190 89
2007-09-25 07:42:01 51°19.938 2°57.006 6.5 26 12.8 101190 90
2007-09-25 07:42:06 51°19.943 2°57.029 6.7 30 12.8 101190 90
2007-09-25 07:42:11 51°19.949 2°57.051 7.1 22 12.8 101200 90
2007-09-25 07:42:16 51°19.955 2°57.074 6.5 23 12.8 101200 90
2007-09-25 07:42:21 51°19.961 2°57.098 6.6 24 12.8 101200 90
2007-09-25 07:42:26 51°19.968 2°57.121 7.4 23 12.8 101200 90
2007-09-25 07:42:31 51°19.973 2°57.143 9.3 22 12.8 101200 89
2007-09-25 07:42:36 51°19.978 2°57.166 7.5 19 12.8 101200 89
2007-09-25 07:42:41 51°19.984 2°57.19 7.2 22 12.8 101200 90
2007-09-25 07:42:46 51°19.99 2°57.214 8.6 26 12.8 101200 90
2007-09-25 07:42:51 51°19.995 2°57.236 6.4 28 12.8 101200 90
2007-09-25 07:42:56 51°19.999 2°57.259 7 17 12.8 101200 90
2007-09-25 07:43:01 51°20.004 2°57.283 7.2 21 12.7 101200 89
2007-09-25 07:43:06 51°20.01 2°57.307 7.9 22 12.7 101200 89
2007-09-25 07:43:11 51°20.015 2°57.33 8.1 25 12.7 101200 89
2007-09-25 07:43:16 51°20.021 2°57.353 7.6 26 12.7 101200 89
2007-09-25 07:43:21 51°20.027 2°57.375 6.3 28 12.7 101190 89
2007-09-25 07:43:26 51°20.033 2°57.399 7.2 25 12.7 101190 89
2007-09-25 07:43:30 51°20.038 2°57.417 5.6 30 12.7 101190 90
2007-09-25 07:43:36 51°20.044 2°57.446 7.6 25 12.7 101190 90
2007-09-25 07:43:41 51°20.052 2°57.467 5.7 25 12.7 101200 89
2007-09-25 07:43:46 51°20.056 2°57.491 7.3 26 12.7 101200 89
2007-09-25 07:43:51 51°20.063 2°57.513 5.8 28 12.7 101200 89
2007-09-25 07:43:56 51°20.068 2°57.537 6 25 12.7 101200 89
2007-09-25 07:44:01 51°20.076 2°57.558 5.5 22 12.7 101190 89
2007-09-25 07:44:06 51°20.079 2°57.582 7.4 20 12.7 101190 89
2007-09-25 07:44:11 51°20.086 2°57.604 6.9 21 12.7 101190 89
2007-09-25 07:44:16 51°20.091 2°57.628 7.2 23 12.7 101190 89
2007-09-25 07:44:21 51°20.098 2°57.65 7.8 28 12.6 101200 89
2007-09-25 07:44:26 51°20.103 2°57.674 7.9 25 12.6 101200 89
2007-09-25 07:44:31 51°20.109 2°57.697 7.8 23 12.7 101190 90
2007-09-25 07:44:36 51°20.113 2°57.72 6 27 12.7 101190 90
2007-09-25 07:44:41 51°20.119 2°57.745 7.1 22 12.7 101200 90
2007-09-25 07:44:46 51°20.126 2°57.768 7.2 22 12.7 101200 90
2007-09-25 07:44:51 51°20.13 2°57.791 7.8 20 12.6 101200 89
2007-09-25 07:44:56 51°20.136 2°57.813 6.7 29 12.6 101200 89
2007-09-25 07:45:01 51°20.141 2°57.838 7.1 21 12.6 101200 89
2007-09-25 07:45:06 51°20.148 2°57.861 7.2 22 12.6 101200 89
2007-09-25 07:45:11 51°20.153 2°57.884 8.8 23 12.6 101210 90
2007-09-25 07:45:16 51°20.158 2°57.906 9.4 26 12.6 101210 90
2007-09-25 07:45:21 51°20.162 2°57.932 9.1 24 12.7 101190 90
2007-09-25 07:45:26 51°20.17 2°57.954 8.9 26 12.7 101190 90
2007-09-25 07:45:31 51°20.174 2°57.977 9.4 25 12.7 101200 90
2007-09-25 07:45:36 51°20.18 2°58 7.1 28 12.7 101200 90
2007-09-25 07:45:41 51°20.185 2°58.025 7.8 27 12.6 101190 90
2007-09-25 07:45:46 51°20.192 2°58.046 8.7 25 12.6 101190 90
2007-09-25 07:45:50 51°20.194 2°58.066 7.2 25 12.6 101200 90
2007-09-25 07:45:56 51°20.202 2°58.093 7.6 23 12.6 101200 90
2007-09-25 07:46:01 51°20.205 2°58.118 6.6 25 12.6 101200 90
2007-09-25 07:46:06 51°20.213 2°58.138 5.9 24 12.6 101200 90
2007-09-25 07:46:11 51°20.218 2°58.161 6.4 21 12.6 101210 89
2007-09-25 07:46:16 51°20.224 2°58.184 7.3 27 12.6 101210 89
2007-09-25 07:46:21 51°20.229 2°58.207 7.4 24 12.6 101200 89
2007-09-25 07:46:26 51°20.233 2°58.23 6.3 22 12.6 101200 89
2007-09-25 07:46:31 51°20.24 2°58.253 7.1 30 12.6 101210 89
2007-09-25 07:46:36 51°20.244 2°58.276 7.6 32 12.6 101210 89
2007-09-25 07:46:41 51°20.251 2°58.299 7.3 31 12.6 101200 89
2007-09-25 07:46:46 51°20.256 2°58.322 6.5 36 12.6 101200 89
2007-09-25 07:46:51 51°20.262 2°58.345 6.5 31 12.6 101190 90
2007-09-25 07:46:56 51°20.268 2°58.368 5.4 31 12.6 101190 90
2007-09-25 07:47:01 51°20.273 2°58.392 6.5 24 12.6 101200 90
2007-09-25 07:47:06 51°20.28 2°58.413 7.7 25 12.6 101200 90
2007-09-25 07:47:11 51°20.283 2°58.437 8.4 27 12.6 101200 89
2007-09-25 07:47:17 51°20.291 2°58.464 5.8 33 12.6 101200 89
2007-09-25 07:47:21 51°20.295 2°58.482 8.8 27 12.6 101200 89
2007-09-25 07:47:26 51°20.301 2°58.505 7.9 26 12.6 101200 89
2007-09-25 07:47:31 51°20.307 2°58.527 8 26 12.6 101210 89
2007-09-25 07:47:36 51°20.313 2°58.55 6.6 31 12.6 101210 89
2007-09-25 07:47:41 51°20.319 2°58.574 6.2 21 12.5 101190 89
2007-09-25 07:47:46 51°20.326 2°58.597 7.1 28 12.5 101190 89
2007-09-25 07:47:50 51°20.329 2°58.616 7.2 31 12.5 101210 89
2007-09-25 07:47:56 51°20.336 2°58.643 7.4 28 12.5 101210 89
2007-09-25 07:48:01 51°20.34 2°58.668 8 28 12.5 101200 89
2007-09-25 07:48:06 51°20.348 2°58.689 6.8 27 12.5 101200 89
2007-09-25 07:48:11 51°20.352 2°58.714 6.9 25 12.5 101200 89
2007-09-25 07:48:16 51°20.359 2°58.737 6.8 26 12.5 101200 89
2007-09-25 07:48:21 51°20.363 2°58.76 6.4 25 12.5 101200 89
2007-09-25 07:48:26 51°20.368 2°58.783 7 24 12.5 101200 89
2007-09-25 07:48:31 51°20.374 2°58.807 7.7 26 12.5 101210 89
2007-09-25 07:48:36 51°20.38 2°58.83 7 32 12.5 101210 89
2007-09-25 07:48:41 51°20.385 2°58.852 8.5 27 12.5 101200 89
2007-09-25 07:48:46 51°20.389 2°58.875 6.3 28 12.5 101200 89
2007-09-25 07:48:51 51°20.395 2°58.9 6.3 30 12.5 101200 89
2007-09-25 07:48:56 51°20.401 2°58.923 6.4 30 12.5 101200 89
2007-09-25 07:49:01 51°20.406 2°58.946 6.4 29 12.5 101200 89
2007-09-25 07:49:06 51°20.412 2°58.968 6.3 24 12.5 101200 89
2007-09-25 07:49:11 51°20.416 2°58.994 6.1 27 12.5 101200 88
2007-09-25 07:49:16 51°20.424 2°59.016 6.5 34 12.5 101200 88
2007-09-25 07:49:21 51°20.428 2°59.038 7.9 33 12.5 101200 89
2007-09-25 07:49:26 51°20.433 2°59.061 6.8 31 12.5 101200 89
2007-09-25 07:49:31 51°20.439 2°59.084 7.7 28 12.5 101200 90
2007-09-25 07:49:36 51°20.443 2°59.108 6.5 29 12.5 101200 90